Zurück zum Katalog

STARLINK-32555

AktivKommunikationVLEO
NORAD 61918·PAYLOAD·🇺🇸 United States

Gestartet Nov 11, 2024 von Cape Canaveral Space Force Station

Loading…

Nächste Überflüge (nächste 24 Stunden)

TLE

AktuellSource: CelesTrak SupGP

Epoche: Sep 14, 2026, 20:33 UTC

1 61918C 24207G   26257.85673611 -.00020520  00000+0 -74346-3 0  2573
2 61918  43.0026 297.3078 0001620 263.6562 246.9177 15.27578788    12

Verfolge STARLINK-32555 in Echtzeit mit AllMySat

Download on the App Store